This is the latest recevied weather packets stored in our database for station/object HG8LXL-2. If no packets are shown the sender has not sent any weather packets the latest 10 day(s).
| Time | Temp. | Humidity | Pressure | Rain* | Wind** | Luminosity | Snow |
|---|---|---|---|---|---|---|---|
| 1778222704 | 22.78° C | 61% | 1013.2 hPa | - | - | - | - |
| 1778222404 | 22.78° C | 61% | 1013.1 hPa | - | - | - | - |
| 1778222104 | 22.78° C | 61% | 1013.1 hPa | - | - | - | - |
| 1778221804 | 22.78° C | 62% | 1013.1 hPa | - | - | - | - |
| 1778221504 | 23.33° C | 59% | 1013 hPa | - | - | - | - |
| 1778221204 | 23.89° C | 60% | 1012.8 hPa | - | - | - | - |
| 1778220904 | 22.22° C | 64% | 1013 hPa | - | - | - | - |
| 1778220604 | 22.78° C | 62% | 1013 hPa | - | - | - | - |
| 1778220304 | 22.78° C | 63% | 1012.9 hPa | - | - | - | - |
| 1778220004 | 22.22° C | 66% | 1012.9 hPa | - | - | - | - |
| 1778219704 | 21.67° C | 67% | 1013 hPa | - | - | - | - |
| 1778219404 | 21.11° C | 68% | 1013 hPa | - | - | - | - |
| 1778219104 | 21.11° C | 68% | 1013 hPa | - | - | - | - |
| 1778218804 | 21.67° C | 67% | 1012.9 hPa | - | - | - | - |
| 1778218504 | 21.67° C | 69% | 1012.9 hPa | - | - | - | - |
| 1778218204 | 21.67° C | 69% | 1012.9 hPa | - | - | - | - |
| 1778217904 | 21.67° C | 68% | 1012.9 hPa | - | - | - | - |
| 1778217604 | 21.11° C | 68% | 1012.9 hPa | - | - | - | - |
| 1778217304 | 21.11° C | 67% | 1012.9 hPa | - | - | - | - |
| 1778217004 | 21.67° C | 68% | 1013 hPa | - | - | - | - |
| 1778216704 | 21.11° C | 69% | 1012.9 hPa | - | - | - | - |
| 1778216404 | 21.67° C | 68% | 1012.9 hPa | - | - | - | - |
| 1778216104 | 21.11° C | 68% | 1012.9 hPa | - | - | - | - |
| 1778215804 | 22.22° C | 67% | 1012.7 hPa | - | - | - | - |
| 1778215504 | 21.67° C | 67% | 1012.7 hPa | - | - | - | - |
* Rain since midnight (hover to see other rain measurements)
** Current wind speed in m/s (hover to see current wind gust speed)